weather.gov     
National Weather Service

Regional Weather Roundup
NWS Homepage
This page is being discontinued on March 12, 2014.
The same data is available at this site. Please update your bookmarks.
Thank you, and we apologize for the inconvenience.
Please send an email to SR-SRH.Webmaster@noaa.gov with any concerns.


Current Version
Previous Version:    01  02  03  04  05  06  07  08  09  10  11  12  13  14  15  16  17  18  19  20  21  22  23  24  25  26  
[Printable]
282
ASUS46 KSEW 201310
RWRWA

WASHINGTON REGIONAL WEATHER ROUNDUP
NATIONAL WEATHER SERVICE SEATTLE WA
600 AM PDT SUN APR 20 2014

NOTE:"FAIR" INDICATES FEW OR NO CLOUDS BELOW 12,000 FEET WITH NO
SIGNIFICANT WEATHER AND/OR OBSTRUCTIONS TO VISIBILITY.

WAZ505-507>509-201400-
SEATTLE, TACOMA, EVERETT, AND VICINITY

CITY           SKY/WX    TMP DP  RH WIND       PRES   REMARKS
EVERETT        MOCLDY    45  41  86 S12       30.25F
BOEING FIELD   CLOUDY    46  40  79 S7        30.27S
RENTON         CLOUDY    44  42  93 E5        30.27S
SEATAC AIRPORT MOCLDY    43  39  86 SE7       30.27S
JBLM-MCCHORD   CLEAR     38  37  99 SE3       30.27S
PUYALLUP         N/A     37  37 100 CALM      30.28R
JBLM-FT LEWIS  CLEAR     37  37  99 SE6       30.27S
TACOMA NARROWS CLOUDY    44  40  85 S6        30.27S
$$

WAZ001-503-506-510-514-515-201400-
NORTH INTERIOR

CITY           SKY/WX    TMP DP  RH WIND       PRES   REMARKS
BELLINGHAM     MOCLDY    45  40  82 CALM      30.24F
FRIDAY HARBOR  CLOUDY    45  42  89 E5        30.25S
EASTSOUND      PTCLDY    45  41  87 MISG      30.22F
PORT ANGELES   CLOUDY    40  37  89 W5        30.23S
NAS WHIDBEY    MOCLDY    46  42  86 E12       30.25S
BURLINGTON     CLEAR     43  39  87 NE5       30.27S
$$

WAZ020-022-039-040-504-511-512-201400-
SOUTHWEST INTERIOR

CITY           SKY/WX    TMP DP  RH WIND       PRES   REMARKS
SHELTON        FOG       37  36  96 CALM      30.24S VSB 1/2
OLYMPIA        MOCLDY    38  37  97 SW5       30.27F FOG
CHEHALIS       CLOUDY    39  39 100 S3        30.30R
KELSO          CLOUDY    41  37  87 CALM      30.32F VSB 1/2
VANCOUVER      MOCLDY    44  41  89 CALM      30.29S
SCAPPOOSE, OR  CLOUDY    41  39  93 W3        30.29S
PORTLAND, OR   PTCLDY    45  42  89 CALM      30.30S
$$

WAZ021-516-517-201400-
WASHINGTON COAST

CITY           SKY/WX    TMP DP  RH WIND       PRES   REMARKS
FORKS          MOCLDY    41  41 100 E3        30.21S FOG
HOQUIAM        CLOUDY    43  41  93 NE5       30.24F
ASTORIA, OR    CLOUDY    42  39  89 CALM      30.25F
$$

WAZ019-023-024-040-518-519-201400-
CASCADE MOUNTAINS AND COLUMBIA GORGE

CITY           SKY/WX    TMP DP  RH WIND       PRES   REMARKS
STAMPEDE PASS  NOT AVBL
TROUTDALE, OR  CLOUDY    44  41  89 E3        30.28F
THE DALLES, OR CLEAR     38  34  85 E7        30.30R
$$

WAZ026-027-041>044-520-521-201400-
EAST SLOPES

CITY           SKY/WX    TMP DP  RH WIND       PRES   REMARKS
OMAK           CLEAR     37  28  70 SW7       30.16R
WENATCHEE      CLEAR     40  30  67 NW5       30.22R
ELLENSBURG     CLEAR     39  28  64 N10       30.24R
YAKIMA         PTCLDY   N/A N/A N/A MISG        N/A
$$

WAZ028-034-035-201400-
COLUMBIA BASIN

CITY           SKY/WX    TMP DP  RH WIND       PRES   REMARKS
EPHRATA        CLEAR     38  28  67 E6        30.20R
MOSES LAKE     CLEAR     43  30  60 S8        30.22R
HANFORD        NOT AVBL
PASCO          CLEAR     42  35  76 E5        30.28R
HERMISTON, OR  CLEAR     39  34  82 S7        30.28R
$$

WAZ036>038-201400-
NORTHEAST WASHINGTON

CITY           SKY/WX    TMP DP  RH WIND       PRES   REMARKS
SPOKANE GEIGER PTCLDY    36  31  82 S7        30.19R
SPOKANE FELTS  PTCLDY    40  33  76 VRB5      30.22R
FAIRCHILD AFB  CLEAR     34  31  90 S8        30.19R
COEURDALENE,ID PTCLDY    37  30  75 CALM      30.22R
DEER PARK      MOCLDY    37  31  78 SE9       30.20R
$$

WAZ029>033-201400-
SOUTHEAST WASHINGTON

CITY           SKY/WX    TMP DP  RH WIND       PRES   REMARKS
PULLMAN        CLEAR     38  30  73 SW12      30.25R
LEWISTON, ID   CLEAR     43  26  51 W5        30.26R
WALLA WALLA    PTCLDY    44  35  70 S10       30.29R
PENDLETON, OR  PTCLDY    38  33  82 S8        30.27R
$$




U.S. Dept. of Commerce
NOAA National Weather Service
1325 East West Highway
Silver Spring, MD 20910
E-mail: w-nws.webmaster@noaa.gov
Page last modified: May 16, 2007
NATIONAL WEATHER SERVICE: for Safety, for Work, for Fun - FOR LIFE